Workout of the Day

« September 7, 2022 »

4 x 6 minutes with rate changes. 2 minutes rest between intervals.

4 x 6 minutes of work with two minutes rest between intervals. Each 6 minute interval is split into 3 minutes then 2 minutes then 1 minute at different stroke rates or cadence. RowErg: 3 minutes at 22, 2 minutes at 24, 1 minute at 28. SkiErg: 3 minutes at 33, 2 minutes at 36, 1 minute at 42. BikeErg: 3 minutes at 78, 2 minutes at 82, 1 minute at 90.

Pos. Name Age Country Result Pace
1151 Franz Klose-Gross 68 GER 4,882 2:27.4
1152 Jon Harris 60 GBR 4,881 2:27.5
1153 Holly Szumila 36 USA 4,878 2:27.6
1154 Paul Newman 52 GBR 4,874 2:27.7
1155 JOHN NETTLETON 58 USA 4,873 2:27.7
1156 Charley Simpson 20 GBR 4,872 2:27.7
1157 Katarzyna Gimier 50 POL 4,871 2:27.8
1158 Bernd Klink 60 GER 4,869 2:27.8
1159 Jorge Rosario 29 USA 4,865 2:27.9
1160 Kevin Heymer 66 GBR 4,863 2:28.0
1160 Claudio Angeli 49 ITA 4,863 2:28.0
1162 Urmas Kukk 57 EST 4,861 2:28.1
1163 Manuel Jara 23 DOM 4,860 2:28.1
1163 J La 47 USA 4,860 2:28.1
1165 Riccardo Russo 44 ITA 4,859 2:28.1
1166 Rick Keilty - USA 4,857 2:28.2
1167 john rice 63 GBR 4,856 2:28.2
1168 Chad Williams 36 USA 4,855 2:28.3
1168 Matt Hayes 37 USA 4,855 2:28.3
1168 Bill Sheffield 45 USA 4,855 2:28.3
1171 Paul Daley - USA 4,854 2:28.3
1172 Jatinder Singh Dosanjh 41 GBR 4,853 2:28.3
1173 lee shen 29 USA 4,852 2:28.3
1173 Noé Tupea 38 PYF 4,852 2:28.3
1175 Kristin Devor 39 USA 4,851 2:28.4
1175 Eduardo Gonzalez 49 CAN 4,851 2:28.4
1177 Sharlene McKinnon 51 CAN 4,850 2:28.4
1177 Thomas Farmer 55 USA 4,850 2:28.4
1177 Jaiye Idowu 43 AUS 4,850 2:28.4
1180 Cristin Manning 53 USA 4,849 2:28.4
1180 Jasdeep Sandhu 33 USA 4,849 2:28.4
1180 Ramuntxo Dubois 43 FRA 4,849 2:28.4
1183 Deb Behnke 46 USA 4,847 2:28.5
1184 Claire Fowler 58 GBR 4,846 2:28.5
1185 Derek Wegner 65 USA 4,845 2:28.6
1186 Cody Bailey 31 USA 4,842 2:28.6
1186 Nash Quines 46 USA 4,842 2:28.6
1188 John Kempisty 73 USA 4,840 2:28.7
1188 Gary Wilke 56 USA 4,840 2:28.7
1190 Joyce Hoffman 62 USA 4,838 2:28.8
1191 Caroll McCullough 67 USA 4,836 2:28.8
1191 Karen Volk 50 CAN 4,836 2:28.8
1193 Neil Fisher 55 GBR 4,834 2:28.9
1194 John McLaughlin 56 USA 4,833 2:28.9
1195 Bill Finch 57 USA 4,829 2:29.0
1196 Elijah Colgrove 40 USA 4,827 2:29.1
1197 Malia Beaulieu 52 USA 4,826 2:29.1
1198 John Hoskins 58 USA 4,823 2:29.2
1199 F M - GBR 4,819 2:29.4
1200 Dan Mazol 45 USA 4,817 2:29.4